| time (UTC) | temp C | wind direction | speed KPH | gust KPH | rain 1hr cm | rain 24hr cm | rain mn cm | humidity % | barometer mb |
| 20260902162013 | 8 | 8 | 4.8 | 9.7 | 0.00 | 0.00 | 0.00 | 73 | 1011.1 |
| 20260902161529 | 8 | 51 | 3.2 | 9.7 | 0.00 | 0.00 | 0.00 | 73 | 1011.1 |
| 20260902161016 | 8 | 57 | 1.6 | 11.3 | 0.00 | 0.00 | 0.00 | 73 | 1011.1 |
| 20260902160514 | 8 | 6 | 3.2 | 11.3 | 0.00 | 0.00 | 0.00 | 74 | 1011.2 |
| 20260902160027 | 8 | 30 | 3.2 | 9.7 | 0.00 | 0.00 | 0.00 | 74 | 1011.3 |
| 20260902155519 | 8 | 18 | 3.2 | 8.0 | 0.00 | 0.00 | 0.00 | 74 | 1011.4 |
| 20260902155012 | 8 | 26 | 0.0 | 9.7 | 0.00 | 0.00 | 0.00 | 74 | 1011.5 |
| 20260902154544 | 8 | 12 | 3.2 | 11.3 | 0.00 | 0.00 | 0.00 | 74 | 1011.5 |
| 20260902154019 | 8 | 15 | 6.4 | 19.3 | 0.00 | 0.00 | 0.00 | 74 | 1011.6 |
| 20260902153512 | 8 | 355 | 6.4 | 19.3 | 0.00 | 0.00 | 0.00 | 74 | 1011.6 |
| 20260902153025 | 8 | 344 | 9.7 | 19.3 | 0.00 | 0.00 | 0.00 | 74 | 1011.7 |
| 20260902152515 | 8 | 3 | 9.7 | 19.3 | 0.00 | 0.00 | 0.00 | 75 | 1011.7 |
| 20260902152013 | 8 | 354 | 9.7 | 16.1 | 0.00 | 0.00 | 0.00 | 75 | 1011.6 |
| 20260902151536 | 8 | 358 | 9.7 | 17.7 | 0.00 | 0.00 | 0.00 | 75 | 1011.6 |
| 20260902151019 | 8 | 330 | 9.7 | 17.7 | 0.00 | 0.00 | 0.00 | 75 | 1011.6 |
| 20260902150518 | 8 | 345 | 9.7 | 17.7 | 0.00 | 0.00 | 0.00 | 75 | 1011.6 |
| 20260902150026 | 8 | 357 | 8.0 | 17.7 | 0.00 | 0.00 | 0.00 | 76 | 1011.6 |
| 20260902145513 | 8 | 359 | 6.4 | 12.9 | 0.00 | 0.00 | 0.00 | 76 | 1011.7 |
| 20260902145016 | 8 | 346 | 6.4 | 11.3 | 0.00 | 0.00 | 0.00 | 76 | 1011.7 |
| 20260902144524 | 8 | 18 | 6.4 | 11.3 | 0.00 | 0.00 | 0.00 | 76 | 1011.7 |
| 20260902144012 | 8 | 30 | 4.8 | 11.3 | 0.00 | 0.00 | 0.00 | 76 | 1011.7 |
| 20260902143516 | 8 | 6 | 6.4 | 11.3 | 0.00 | 0.00 | 0.00 | 76 | 1011.7 |
| 20260902143025 | 8 | 16 | 4.8 | 9.7 | 0.00 | 0.00 | 0.00 | 76 | 1011.6 |
| 20260902142506 | 8 | 6 | 4.8 | 9.7 | 0.00 | 0.00 | 0.00 | 76 | 1011.7 |
| 20260902142005 | 8 | 23 | 3.2 | 6.4 | 0.00 | 0.00 | 0.00 | 75 | 1011.8 |
| 20260902141507 | 8 | 19 | 3.2 | 9.7 | 0.00 | 0.00 | 0.00 | 75 | 1011.8 |
| 20260902141007 | 8 | 1 | 4.8 | 12.9 | 0.00 | 0.00 | 0.00 | 74 | 1011.8 |
| 20260902140506 | 8 | 355 | 6.4 | 12.9 | 0.00 | 0.00 | 0.00 | 73 | 1011.8 |
| 20260902140015 | 9 | 345 | 8.0 | 12.9 | 0.00 | 0.00 | 0.00 | 72 | 1011.8 |
| 20260902135509 | 9 | 338 | 8.0 | 19.3 | 0.00 | 0.00 | 0.00 | 71 | 1011.8 |
| 20260902135005 | 10 | 338 | 8.0 | 19.3 | 0.00 | 0.00 | 0.00 | 71 | 1011.8 |
| 20260902134517 | 10 | 322 | 6.4 | 17.7 | 0.00 | 0.00 | 0.00 | 70 | 1011.8 |
| 20260902134007 | 10 | 326 | 8.0 | 17.7 | 0.00 | 0.00 | 0.00 | 71 | 1011.9 |
| 20260902133515 | 10 | 313 | 6.4 | 16.1 | 0.00 | 0.00 | 0.00 | 71 | 1012.0 |
| 20260902133021 | 10 | 341 | 8.0 | 14.5 | 0.00 | 0.00 | 0.00 | 73 | 1012.0 |
| 20260902132508 | 10 | 340 | 8.0 | 19.3 | 0.00 | 0.00 | 0.00 | 73 | 1012.1 |
| 20260902132015 | 10 | 342 | 8.0 | 19.3 | 0.00 | 0.00 | 0.00 | 73 | 1012.2 |
| 20260902131527 | 10 | 360 | 8.0 | 12.9 | 0.00 | 0.00 | 0.00 | 73 | 1012.2 |
| 20260902131004 | 9 | 332 | 6.4 | 12.9 | 0.00 | 0.00 | 0.00 | 73 | 1012.2 |
| 20260902130505 | 9 | 359 | 8.0 | 12.9 | 0.00 | 0.00 | 0.00 | 73 | 1012.4 |
| 20260902130024 | 9 | 346 | 6.4 | 12.9 | 0.00 | 0.00 | 0.00 | 73 | 1012.4 |
| 20260902125506 | 9 | 352 | 4.8 | 9.7 | 0.00 | 0.00 | 0.00 | 73 | 1012.4 |
| 20260902125008 | 9 | 356 | 3.2 | 9.7 | 0.00 | 0.00 | 0.00 | 73 | 1012.5 |
| 20260902124509 | 9 | 12 | 3.2 | 12.9 | 0.00 | 0.00 | 0.00 | 73 | 1012.6 |
| 20260902124009 | 9 | 338 | 8.0 | 12.9 | 0.00 | 0.00 | 0.00 | 73 | 1012.6 |
| 20260902123512 | 9 | 357 | 3.2 | 8.0 | 0.00 | 0.00 | 0.00 | 73 | 1012.7 |
| 20260902123024 | 9 | 308 | 1.6 | 4.8 | 0.00 | 0.00 | 0.00 | 73 | 1012.7 |
| 20260902122514 | 9 | 308 | 3.2 | 4.8 | 0.00 | 0.00 | 0.00 | 72 | 1012.8 |
| 20260902122009 | 9 | 308 | 0.0 | 4.8 | 0.00 | 0.00 | 0.00 | 71 | 1012.8 |
| 20260902121526 | 9 | 308 | 0.0 | 6.4 | 0.00 | 0.00 | 0.00 | 71 | 1012.8 |
| 20260902121017 | 9 | 313 | 1.6 | 8.0 | 0.00 | 0.00 | 0.00 | 72 | 1012.7 |
| 20260902120509 | 9 | 354 | 3.2 | 8.0 | 0.00 | 0.00 | 0.00 | 71 | 1012.7 |
| 20260902120032 | 9 | 73 | 1.6 | 9.7 | 0.00 | 0.00 | 0.00 | 72 | 1012.7 |
| 20260902115510 | 9 | 49 | 3.2 | 9.7 | 0.00 | 0.00 | 0.00 | 72 | 1012.8 |
| 20260902115005 | 9 | 19 | 3.2 | 9.7 | 0.00 | 0.00 | 0.00 | 72 | 1012.8 |
| 20260902114518 | 9 | 18 | 4.8 | 9.7 | 0.00 | 0.00 | 0.00 | 73 | 1012.9 |
| 20260902114010 | 9 | 31 | 4.8 | 9.7 | 0.00 | 0.00 | 0.00 | 73 | 1012.9 |
| 20260902113510 | 9 | 32 | 3.2 | 9.7 | 0.00 | 0.00 | 0.00 | 73 | 1012.9 |
| 20260902113014 | 9 | 70 | 1.6 | 14.5 | 0.00 | 0.00 | 0.00 | 73 | 1013.0 |
| 20260902112509 | 10 | 29 | 4.8 | 14.5 | 0.00 | 0.00 | 0.00 | 73 | 1013.1 |
| 20260902112014 | 9 | 349 | 6.4 | 14.5 | 0.00 | 0.00 | 0.00 | 74 | 1013.1 |
| 20260902111521 | 10 | 353 | 9.7 | 16.1 | 0.00 | 0.00 | 0.00 | 74 | 1013.2 |
| 20260902111013 | 10 | 321 | 9.7 | 16.1 | 0.00 | 0.00 | 0.00 | 74 | 1013.3 |
| 20260902110512 | 9 | 330 | 6.4 | 16.1 | 0.00 | 0.00 | 0.00 | 74 | 1013.4 |
| 20260902110025 | 9 | 317 | 8.0 | 16.1 | 0.00 | 0.00 | 0.00 | 75 | 1013.5 |
| 20260902105516 | 9 | 327 | 9.7 | 14.5 | 0.00 | 0.00 | 0.00 | 75 | 1013.4 |
| 20260902105017 | 9 | 318 | 9.7 | 16.1 | 0.00 | 0.00 | 0.00 | 75 | 1013.4 |
| 20260902104514 | 9 | 337 | 11.3 | 16.1 | 0.00 | 0.00 | 0.00 | 74 | 1013.4 |
| 20260902104016 | 8 | 318 | 11.3 | 16.1 | 0.00 | 0.00 | 0.00 | 75 | 1013.4 |
| 20260902103512 | 8 | 331 | 8.0 | 17.7 | 0.00 | 0.00 | 0.00 | 75 | 1013.3 |
| 20260902103009 | 8 | 333 | 11.3 | 17.7 | 0.00 | 0.00 | 0.00 | 74 | 1013.3 |
| 20260902102509 | 8 | 326 | 8.0 | 14.5 | 0.00 | 0.00 | 0.00 | 73 | 1013.2 |
| 20260902102010 | 9 | 343 | 8.0 | 14.5 | 0.00 | 0.00 | 0.00 | 72 | 1013.1 |
| 20260902101518 | 9 | 318 | 8.0 | 16.1 | 0.00 | 0.00 | 0.00 | 71 | 1013.1 |
| 20260902101014 | 10 | 326 | 9.7 | 16.1 | 0.00 | 0.00 | 0.00 | 71 | 1013.2 |
| 20260902100513 | 10 | 322 | 8.0 | 17.7 | 0.00 | 0.00 | 0.00 | 71 | 1013.1 |
| 20260902100027 | 10 | 310 | 9.7 | 17.7 | 0.00 | 0.00 | 0.00 | 70 | 1012.9 |
| 20260902095514 | 10 | 328 | 11.3 | 19.3 | 0.00 | 0.00 | 0.00 | 70 | 1012.8 |
| 20260902095016 | 10 | 345 | 11.3 | 22.5 | 0.00 | 0.00 | 0.00 | 71 | 1012.9 |
| 20260902094530 | 10 | 322 | 12.9 | 22.5 | 0.00 | 0.00 | 0.00 | 71 | 1012.8 |
| 20260902094012 | 10 | 297 | 12.9 | 22.5 | 0.00 | 0.00 | 0.00 | 71 | 1012.7 |
| 20260902093518 | 10 | 328 | 11.3 | 20.9 | 0.00 | 0.00 | 0.00 | 71 | 1012.7 |
| 20260902093035 | 10 | 323 | 12.9 | 22.5 | 0.00 | 0.00 | 0.00 | 72 | 1012.6 |
| 20260902092519 | 10 | 325 | 14.5 | 22.5 | 0.00 | 0.00 | 0.00 | 72 | 1012.6 |
| 20260902092016 | 10 | 349 | 12.9 | 22.5 | 0.00 | 0.00 | 0.00 | 72 | 1012.5 |
| 20260902091527 | 10 | 356 | 16.1 | 22.5 | 0.00 | 0.00 | 0.00 | 72 | 1012.5 |
| 20260902091012 | 10 | 335 | 14.5 | 19.3 | 0.00 | 0.00 | 0.00 | 72 | 1012.4 |
| 20260902090513 | 10 | 331 | 12.9 | 19.3 | 0.00 | 0.00 | 0.00 | 71 | 1012.5 |
| 20260902090018 | 10 | 312 | 11.3 | 19.3 | 0.00 | 0.00 | 0.00 | 71 | 1012.5 |
| 20260902085511 | 10 | 318 | 11.3 | 19.3 | 0.00 | 0.00 | 0.00 | 71 | 1012.5 |
| 20260902085015 | 10 | 314 | 11.3 | 17.7 | 0.00 | 0.00 | 0.00 | 70 | 1012.5 |
| 20260902084528 | 10 | 342 | 11.3 | 17.7 | 0.00 | 0.00 | 0.00 | 70 | 1012.4 |
| 20260902084015 | 10 | 324 | 11.3 | 17.7 | 0.00 | 0.00 | 0.00 | 69 | 1012.4 |
| 20260902083513 | 11 | 320 | 11.3 | 17.7 | 0.00 | 0.00 | 0.00 | 69 | 1012.3 |
| 20260902083036 | 11 | 331 | 11.3 | 17.7 | 0.00 | 0.00 | 0.00 | 69 | 1012.4 |
| 20260902082503 | 11 | 341 | 11.3 | 19.3 | 0.00 | 0.00 | 0.00 | 69 | 1012.4 |
| 20260902082008 | 11 | 339 | 12.9 | 20.9 | 0.00 | 0.00 | 0.00 | 69 | 1012.3 |
| 20260902081507 | 11 | 344 | 11.3 | 20.9 | 0.00 | 0.00 | 0.00 | 69 | 1012.3 |
| 20260902081016 | 11 | 338 | 12.9 | 22.5 | 0.00 | 0.00 | 0.00 | 68 | 1012.4 |
| 20260902080509 | 11 | 334 | 16.1 | 22.5 | 0.00 | 0.00 | 0.00 | 68 | 1012.4 |
| 20260902080005 | 11 | 351 | 11.3 | 19.3 | 0.00 | 0.00 | 0.00 | 69 | 1012.3 |
| 20260902075511 | 12 | 343 | 11.3 | 19.3 | 0.00 | 0.00 | 0.00 | 68 | 1012.3 |
| 20260902075007 | 12 | 335 | 11.3 | 20.9 | 0.00 | 0.00 | 0.00 | 68 | 1012.2 |
| 20260902074505 | 12 | 328 | 12.9 | 22.5 | 0.00 | 0.00 | 0.00 | 67 | 1012.2 |
| 20260902074012 | 12 | 345 | 12.9 | 27.4 | 0.00 | 0.00 | 0.00 | 67 | 1012.1 |
| 20260902073505 | 13 | 324 | 14.5 | 27.4 | 0.00 | 0.00 | 0.00 | 67 | 1012.1 |
| 20260902073014 | 13 | 337 | 9.7 | 25.7 | 0.00 | 0.00 | 0.00 | 67 | 1012.2 |
| 20260902072503 | 13 | 347 | 14.5 | 30.6 | 0.00 | 0.00 | 0.00 | 66 | 1012.2 |
| 20260902072006 | 13 | 8 | 14.5 | 30.6 | 0.00 | 0.00 | 0.00 | 66 | 1012.2 |
| 20260902071507 | 13 | 14 | 12.9 | 25.7 | 0.00 | 0.00 | 0.00 | 66 | 1012.2 |
| 20260902071008 | 13 | 10 | 9.7 | 27.4 | 0.00 | 0.00 | 0.00 | 66 | 1012.2 |
| 20260902070507 | 13 | 347 | 12.9 | 27.4 | 0.00 | 0.00 | 0.00 | 65 | 1012.1 |
| 20260902070015 | 13 | 358 | 16.1 | 30.6 | 0.00 | 0.00 | 0.00 | 64 | 1012.2 |
| 20260902065508 | 13 | 347 | 17.7 | 30.6 | 0.00 | 0.00 | 0.00 | 64 | 1012.2 |
| 20260902065012 | 14 | 344 | 14.5 | 27.4 | 0.00 | 0.00 | 0.00 | 63 | 1012.2 |
| 20260902064517 | 14 | 11 | 11.3 | 22.5 | 0.00 | 0.00 | 0.00 | 65 | 1012.2 |
| 20260902064006 | 13 | 351 | 9.7 | 22.5 | 0.00 | 0.00 | 0.00 | 65 | 1012.3 |
| 20260902063512 | 13 | 339 | 11.3 | 25.7 | 0.00 | 0.00 | 0.00 | 65 | 1012.3 |
| 20260902063017 | 13 | 345 | 16.1 | 25.7 | 0.00 | 0.00 | 0.00 | 63 | 1012.4 |
| 20260902062516 | 15 | 332 | 14.5 | 24.1 | 0.00 | 0.00 | 0.00 | 62 | 1012.5 |
| 20260902062014 | 15 | 341 | 14.5 | 24.1 | 0.00 | 0.00 | 0.00 | 63 | 1012.5 |
| 20260902061506 | 15 | 339 | 11.3 | 27.4 | 0.00 | 0.00 | 0.00 | 65 | 1012.6 |
| 20260902061011 | 15 | 349 | 12.9 | 29.0 | 0.00 | 0.00 | 0.00 | 62 | 1012.6 |
| 20260902060508 | 15 | 358 | 14.5 | 29.0 | 0.00 | 0.00 | 0.00 | 64 | 1012.7 |
| 20260902060008 | 14 | 11 | 9.7 | 24.1 | 0.00 | 0.00 | 0.00 | 64 | 1012.5 |
| 20260902055508 | 14 | 347 | 9.7 | 27.4 | 0.00 | 0.00 | 0.00 | 64 | 1012.6 |
| 20260902055010 | 15 | 7 | 12.9 | 27.4 | 0.00 | 0.00 | 0.00 | 62 | 1012.7 |
| 20260902054524 | 15 | 337 | 20.9 | 27.4 | 0.00 | 0.00 | 0.00 | 61 | 1012.6 |
| 20260902054009 | 14 | 339 | 12.9 | 25.7 | 0.00 | 0.00 | 0.00 | 64 | 1012.7 |
| 20260902053508 | 15 | 336 | 14.5 | 30.6 | 0.00 | 0.00 | 0.00 | 60 | 1012.7 |
| 20260902053026 | 15 | 338 | 19.3 | 30.6 | 0.00 | 0.00 | 0.00 | 60 | 1012.7 |
| 20260902052509 | 15 | 330 | 12.9 | 27.4 | 0.00 | 0.00 | 0.00 | 61 | 1012.8 |
| 20260902052014 | 15 | 339 | 19.3 | 29.0 | 0.00 | 0.00 | 0.00 | 59 | 1012.9 |
| 20260902051527 | 15 | 337 | 11.3 | 29.0 | 0.00 | 0.00 | 0.00 | 60 | 1012.9 |
| 20260902051007 | 16 | 311 | 20.9 | 29.0 | 0.00 | 0.00 | 0.00 | 57 | 1012.8 |
| 20260902050520 | 16 | 330 | 17.7 | 29.0 | 0.00 | 0.00 | 0.00 | 59 | 1012.8 |
| 20260902050010 | 15 | 349 | 16.1 | 30.6 | 0.00 | 0.00 | 0.00 | 61 | 1012.8 |
| 20260902045505 | 15 | 351 | 17.7 | 35.4 | 0.00 | 0.00 | 0.00 | 59 | 1012.8 |
| 20260902045008 | 15 | 3 | 11.3 | 35.4 | 0.00 | 0.00 | 0.00 | 61 | 1012.8 |
| 20260902044513 | 15 | 337 | 14.5 | 27.4 | 0.00 | 0.00 | 0.00 | 62 | 1012.8 |
| 20260902044009 | 15 | 345 | 14.5 | 33.8 | 0.00 | 0.00 | 0.00 | 61 | 1012.9 |
| 20260902043510 | 15 | 340 | 17.7 | 33.8 | 0.00 | 0.00 | 0.00 | 59 | 1012.9 |
| 20260902043017 | 16 | 4 | 17.7 | 33.8 | 0.00 | 0.00 | 0.00 | 60 | 1012.8 |
| 20260902042511 | 16 | 346 | 20.9 | 33.8 | 0.00 | 0.00 | 0.00 | 61 | 1012.7 |
| 20260902042012 | 15 | 329 | 19.3 | 32.2 | 0.00 | 0.00 | 0.00 | 60 | 1012.8 |
| 20260902041510 | 16 | 338 | 14.5 | 29.0 | 0.00 | 0.00 | 0.00 | 63 | 1012.7 |
| 20260902041016 | 15 | 4 | 17.7 | 33.8 | 0.00 | 0.00 | 0.00 | 62 | 1012.8 |
| 20260902040511 | 16 | 16 | 19.3 | 33.8 | 0.00 | 0.00 | 0.00 | 61 | 1012.8 |
| 20260902040030 | 15 | 336 | 17.7 | 29.0 | 0.00 | 0.00 | 0.00 | 60 | 1012.8 |
| 20260902035512 | 15 | 334 | 16.1 | 29.0 | 0.00 | 0.00 | 0.00 | 60 | 1012.8 |
| 20260902035010 | 16 | 342 | 17.7 | 32.2 | 0.00 | 0.00 | 0.00 | 61 | 1012.9 |
| 20260902034530 | 16 | 336 | 16.1 | 32.2 | 0.00 | 0.00 | 0.00 | 61 | 1012.9 |
| 20260902034007 | 16 | 312 | 14.5 | 25.7 | 0.00 | 0.00 | 0.00 | 66 | 1013.0 |
| 20260902033512 | 15 | 333 | 1.6 | 8.0 | 0.00 | 0.00 | 0.00 | 71 | 1013.1 |
| 20260902033016 | 14 | 141 | 0.0 | 6.4 | 0.00 | 0.00 | 0.00 | 70 | 1013.2 |
| 20260902032512 | 14 | 139 | 3.2 | 8.0 | 0.00 | 0.00 | 0.00 | 71 | 1013.3 |
| 20260902032023 | 13 | 132 | 1.6 | 9.7 | 0.00 | 0.00 | 0.00 | 71 | 1013.3 |
| 20260902031527 | 14 | 195 | 6.4 | 9.7 | 0.00 | 0.00 | 0.00 | 71 | 1013.3 |
| 20260902031011 | 14 | 135 | 4.8 | 9.7 | 0.00 | 0.00 | 0.00 | 71 | 1013.4 |
| 20260902030514 | 14 | 105 | 4.8 | 9.7 | 0.00 | 0.00 | 0.00 | 71 | 1013.6 |
| 20260902030024 | 14 | 204 | 3.2 | 9.7 | 0.00 | 0.00 | 0.00 | 72 | 1013.6 |
| 20260902025519 | 14 | 175 | 6.4 | 11.3 | 0.00 | 0.00 | 0.00 | 71 | 1013.7 |
| 20260902025014 | 13 | 260 | 1.6 | 11.3 | 0.00 | 0.00 | 0.00 | 72 | 1013.7 |
| 20260902024521 | 13 | 209 | 1.6 | 8.0 | 0.00 | 0.00 | 0.00 | 72 | 1014.0 |
| 20260902024019 | 13 | 128 | 1.6 | 6.4 | 0.00 | 0.00 | 0.00 | 72 | 1014.1 |
| 20260902023516 | 13 | 214 | 3.2 | 9.7 | 0.00 | 0.00 | 0.00 | 72 | 1014.2 |
| 20260902023033 | 13 | 175 | 3.2 | 9.7 | 0.00 | 0.00 | 0.00 | 74 | 1014.1 |
| 20260902022504 | 13 | 193 | 3.2 | 16.1 | 0.00 | 0.00 | 0.00 | 73 | 1014.4 |
| 20260902022005 | 12 | 232 | 8.0 | 16.1 | 0.00 | 0.00 | 0.00 | 72 | 1014.5 |
| 20260902021525 | 13 | 219 | 6.4 | 14.5 | 0.00 | 0.00 | 0.00 | 72 | 1014.5 |
| 20260902021007 | 13 | 191 | 4.8 | 14.5 | 0.00 | 0.00 | 0.00 | 73 | 1014.5 |
| 20260902020504 | 13 | 192 | 6.4 | 14.5 | 0.00 | 0.00 | 0.00 | 73 | 1014.7 |
| 20260902020004 | 13 | 208 | 4.8 | 14.5 | 0.00 | 0.00 | 0.00 | 70 | 1014.8 |
| 20260902015504 | 13 | 147 | 1.6 | 4.8 | 0.00 | 0.00 | 0.00 | 70 | 1014.9 |
| 20260902015004 | 13 | 71 | 0.0 | 3.2 | 0.00 | 0.00 | 0.00 | 71 | 1014.9 |
| 20260902014507 | 13 | 70 | 0.0 | 4.8 | 0.00 | 0.00 | 0.00 | 73 | 1015.0 |
| 20260902014006 | 12 | 101 | 1.6 | 11.3 | 0.00 | 0.00 | 0.00 | 72 | 1015.1 |
| 20260902013510 | 12 | 98 | 4.8 | 12.9 | 0.00 | 0.00 | 0.00 | 73 | 1015.2 |
| 20260902013007 | 12 | 121 | 8.0 | 12.9 | 0.00 | 0.00 | 0.00 | 73 | 1015.2 |
| 20260902012508 | 12 | 77 | 3.2 | 9.7 | 0.00 | 0.00 | 0.00 | 74 | 1015.2 |
| 20260902012008 | 12 | 72 | 1.6 | 14.5 | 0.00 | 0.00 | 0.00 | 74 | 1015.2 |
| 20260902011510 | 12 | 100 | 4.8 | 14.5 | 0.00 | 0.00 | 0.00 | 75 | 1015.3 |
| 20260902011012 | 12 | 210 | 4.8 | 8.0 | 0.00 | 0.00 | 0.00 | 77 | 1015.5 |
| 20260902010503 | 11 | 192 | 4.8 | 9.7 | 0.00 | 0.00 | 0.00 | 76 | 1015.5 |
| 20260902010023 | 11 | 142 | 4.8 | 14.5 | 0.00 | 0.00 | 0.00 | 76 | 1015.6 |
| 20260902005511 | 11 | 117 | 3.2 | 14.5 | 0.00 | 0.00 | 0.00 | 76 | 1015.7 |
| 20260902005005 | 11 | 172 | 4.8 | 12.9 | 0.00 | 0.00 | 0.00 | 77 | 1015.8 |
| 20260902004504 | 11 | 213 | 3.2 | 12.9 | 0.00 | 0.00 | 0.00 | 77 | 1015.9 |
| 20260902004006 | 11 | 166 | 6.4 | 12.9 | 0.00 | 0.00 | 0.00 | 78 | 1015.9 |
| 20260902003504 | 11 | 180 | 4.8 | 11.3 | 0.00 | 0.00 | 0.00 | 78 | 1015.9 |
| 20260902003010 | 11 | 198 | 6.4 | 11.3 | 0.00 | 0.00 | 0.00 | 79 | 1015.8 |
| 20260902002505 | 10 | 167 | 4.8 | 9.7 | 0.00 | 0.00 | 0.00 | 79 | 1015.9 |
| 20260902002010 | 10 | 180 | 4.8 | 12.9 | 0.00 | 0.00 | 0.00 | 78 | 1016.0 |
| 20260902001514 | 10 | 169 | 8.0 | 12.9 | 0.00 | 0.00 | 0.00 | 79 | 1016.1 |
| 20260902001006 | 10 | 129 | 4.8 | 14.5 | 0.00 | 0.00 | 0.00 | 79 | 1016.1 |
| 20260902000512 | 10 | 180 | 6.4 | 14.5 | 0.00 | 0.00 | 0.00 | 79 | 1016.0 |
| 20260902000015 | 10 | 195 | 6.4 | 14.5 | 0.00 | 0.00 | 0.00 | 80 | 1016.1 |
| 20260901235514 | 10 | 172 | 8.0 | 12.9 | 0.00 | 0.00 | 0.00 | 80 | 1016.1 |
| 20260901235011 | 10 | 185 | 8.0 | 12.9 | 0.00 | 0.00 | 0.00 | 80 | 1016.0 |
| 20260901234510 | 10 | 198 | 8.0 | 14.5 | 0.00 | 0.00 | 0.00 | 81 | 1015.9 |
| 20260901234018 | 10 | 159 | 8.0 | 14.5 | 0.00 | 0.00 | 0.00 | 81 | 1016.0 |
| 20260901233507 | 10 | 193 | 6.4 | 12.9 | 0.00 | 0.00 | 0.00 | 81 | 1016.0 |
| 20260901233006 | 10 | 160 | 6.4 | 12.9 | 0.00 | 0.00 | 0.00 | 81 | 1016.1 |
| 20260901232506 | 10 | 172 | 4.8 | 9.7 | 0.00 | 0.00 | 0.00 | 82 | 1016.1 |
| 20260901232004 | 10 | 143 | 4.8 | 12.9 | 0.00 | 0.00 | 0.00 | 82 | 1016.1 |
| 20260901231510 | 10 | 175 | 8.0 | 12.9 | 0.00 | 0.00 | 0.00 | 82 | 1016.1 |
| 20260901231005 | 10 | 149 | 6.4 | 14.5 | 0.00 | 0.00 | 0.00 | 82 | 1016.1 |
| 20260901230506 | 10 | 159 | 6.4 | 14.5 | 0.00 | 0.00 | 0.00 | 82 | 1016.1 |
| 20260901230022 | 10 | 185 | 6.4 | 12.9 | 0.00 | 0.00 | 0.00 | 82 | 1016.1 |
| 20260901225513 | 10 | 199 | 6.4 | 14.5 | 0.00 | 0.00 | 0.00 | 82 | 1016.0 |
| 20260901225005 | 10 | 194 | 9.7 | 14.5 | 0.00 | 0.00 | 0.00 | 82 | 1016.1 |
| 20260901224529 | 10 | 196 | 8.0 | 12.9 | 0.00 | 0.00 | 0.00 | 82 | 1016.1 |
| 20260901224010 | 10 | 196 | 6.4 | 12.9 | 0.00 | 0.00 | 0.00 | 83 | 1016.1 |
| 20260901223513 | 10 | 189 | 4.8 | 8.0 | 0.00 | 0.00 | 0.00 | 83 | 1016.1 |
| 20260901223024 | 10 | 148 | 3.2 | 8.0 | 0.00 | 0.00 | 0.00 | 83 | 1016.1 |
| 20260901222508 | 10 | 104 | 4.8 | 8.0 | 0.00 | 0.00 | 0.00 | 83 | 1016.0 |
| 20260901222016 | 10 | 113 | 4.8 | 8.0 | 0.00 | 0.00 | 0.00 | 83 | 1016.1 |
| 20260901221521 | 10 | 133 | 6.4 | 8.0 | 0.00 | 0.00 | 0.00 | 83 | 1016.0 |
| 20260901221008 | 10 | 113 | 1.6 | 6.4 | 0.00 | 0.00 | 0.00 | 83 | 1015.9 |
| 20260901220505 | 10 | 160 | 1.6 | 6.4 | 0.00 | 0.00 | 0.00 | 83 | 1015.9 |
| 20260901220027 | 10 | 135 | 1.6 | 6.4 | 0.00 | 0.00 | 0.00 | 83 | 1015.8 |
| 20260901215512 | 10 | 137 | 3.2 | 8.0 | 0.00 | 0.00 | 0.00 | 83 | 1015.7 |
| 20260901215011 | 10 | 115 | 4.8 | 8.0 | 0.00 | 0.00 | 0.00 | 84 | 1015.6 |
| 20260901214509 | 10 | 145 | 3.2 | 6.4 | 0.00 | 0.00 | 0.00 | 84 | 1015.6 |
| 20260901214013 | 10 | 147 | 4.8 | 6.4 | 0.00 | 0.00 | 0.00 | 84 | 1015.5 |
| 20260901213512 | 10 | 153 | 3.2 | 4.8 | 0.00 | 0.00 | 0.00 | 84 | 1015.6 |
| 20260901213057 | 10 | 145 | 0.0 | 4.8 | 0.00 | 0.00 | 0.00 | 84 | 1015.6 |
| 20260901212514 | 10 | 145 | 1.6 | 6.4 | 0.00 | 0.00 | 0.00 | 84 | 1015.5 |
| 20260901212014 | 10 | 145 | 3.2 | 6.4 | 0.00 | 0.00 | 0.00 | 84 | 1015.4 |
| 20260901211514 | 10 | 153 | 1.6 | 4.8 | 0.00 | 0.00 | 0.00 | 84 | 1015.3 |
| 20260901211019 | 10 | 153 | 1.6 | 4.8 | 0.00 | 0.00 | 0.00 | 84 | 1015.3 |
| 20260901210511 | 10 | 153 | 0.0 | 4.8 | 0.00 | 0.00 | 0.00 | 84 | 1015.3 |
| 20260901210033 | 10 | 189 | 3.2 | 4.8 | 0.00 | 0.00 | 0.00 | 84 | 1015.3 |
| 20260901205518 | 10 | 197 | 0.0 | 4.8 | 0.00 | 0.00 | 0.00 | 83 | 1015.2 |
| 20260901205009 | 10 | 197 | 0.0 | 8.0 | 0.00 | 0.00 | 0.00 | 83 | 1015.3 |
| 20260901204512 | 10 | 197 | 3.2 | 8.0 | 0.00 | 0.00 | 0.00 | 83 | 1015.1 |
| 20260901204012 | 10 | 185 | 6.4 | 8.0 | 0.00 | 0.00 | 0.00 | 83 | 1015.0 |
| 20260901203510 | 10 | 191 | 4.8 | 8.0 | 0.00 | 0.00 | 0.00 | 83 | 1014.9 |
| 20260901203042 | 10 | 200 | 3.2 | 8.0 | 0.00 | 0.00 | 0.00 | 83 | 1015.1 |
| 20260901202511 | 10 | 202 | 4.8 | 8.0 | 0.00 | 0.00 | 0.00 | 83 | 1015.1 |
| 20260901202017 | 10 | 185 | 4.8 | 8.0 | 0.00 | 0.00 | 0.00 | 83 | 1015.0 |
| 20260901201525 | 10 | 197 | 3.2 | 8.0 | 0.00 | 0.00 | 0.00 | 83 | 1014.8 |
| 20260901201015 | 10 | 236 | 3.2 | 12.9 | 0.00 | 0.00 | 0.00 | 83 | 1014.7 |
| 20260901200515 | 10 | 206 | 6.4 | 12.9 | 0.00 | 0.00 | 0.00 | 83 | 1014.7 |
| 20260901200031 | 10 | 206 | 6.4 | 12.9 | 0.00 | 0.00 | 0.00 | 83 | 1014.7 |
| 20260901195514 | 10 | 164 | 4.8 | 16.1 | 0.00 | 0.00 | 0.00 | 83 | 1014.7 |
| 20260901195020 | 10 | 191 | 8.0 | 17.7 | 0.00 | 0.00 | 0.00 | 83 | 1014.6 |
| 20260901194523 | 10 | 167 | 8.0 | 17.7 | 0.00 | 0.00 | 0.00 | 83 | 1014.6 |
| 20260901194020 | 10 | 185 | 8.0 | 17.7 | 0.00 | 0.00 | 0.00 | 82 | 1014.6 |
| 20260901193508 | 11 | 180 | 11.3 | 19.3 | 0.00 | 0.00 | 0.00 | 82 | 1014.5 |
| 20260901193019 | 11 | 204 | 14.5 | 20.9 | 0.00 | 0.00 | 0.00 | 81 | 1014.3 |
| 20260901192512 | 11 | 149 | 12.9 | 20.9 | 0.00 | 0.00 | 0.00 | 80 | 1014.2 |
| 20260901192013 | 12 | 214 | 12.9 | 19.3 | 0.00 | 0.00 | 0.00 | 80 | 1014.1 |
| 20260901191525 | 12 | 199 | 11.3 | 17.7 | 0.00 | 0.00 | 0.00 | 79 | 1014.1 |
| 20260901191017 | 12 | 240 | 6.4 | 12.9 | 0.00 | 0.00 | 0.00 | 78 | 1013.9 |
| 20260901190514 | 12 | 8 | 4.8 | 17.7 | 0.00 | 0.00 | 0.00 | 78 | 1013.8 |
| 20260901190029 | 12 | 29 | 8.0 | 17.7 | 0.00 | 0.00 | 0.00 | 78 | 1013.7 |
| 20260901185517 | 12 | 14 | 8.0 | 17.7 | 0.00 | 0.00 | 0.00 | 78 | 1013.7 |
| 20260901185009 | 12 | 4 | 4.8 | 17.7 | 0.00 | 0.00 | 0.00 | 78 | 1013.7 |
| 20260901184532 | 12 | 349 | 4.8 | 12.9 | 0.00 | 0.00 | 0.00 | 78 | 1013.8 |
| 20260901184017 | 12 | 26 | 3.2 | 14.5 | 0.00 | 0.00 | 0.00 | 78 | 1013.7 |
| 20260901183517 | 12 | 3 | 9.7 | 14.5 | 0.00 | 0.00 | 0.00 | 78 | 1013.7 |
| 20260901183040 | 12 | 14 | 6.4 | 14.5 | 0.00 | 0.00 | 0.00 | 78 | 1013.6 |
| 20260901182512 | 12 | 8 | 8.0 | 14.5 | 0.00 | 0.00 | 0.00 | 78 | 1013.6 |
| 20260901182019 | 12 | 356 | 8.0 | 16.1 | 0.00 | 0.00 | 0.00 | 78 | 1013.6 |
| 20260901181523 | 12 | 314 | 8.0 | 16.1 | 0.00 | 0.00 | 0.00 | 78 | 1013.6 |
| 20260901181012 | 12 | 346 | 9.7 | 17.7 | 0.00 | 0.00 | 0.00 | 77 | 1013.5 |
| 20260901180516 | 12 | 332 | 11.3 | 17.7 | 0.00 | 0.00 | 0.00 | 77 | 1013.4 |
| 20260901180025 | 12 | 341 | 11.3 | 17.7 | 0.00 | 0.00 | 0.00 | 77 | 1013.4 |
| 20260901175516 | 12 | 326 | 9.7 | 17.7 | 0.00 | 0.00 | 0.00 | 77 | 1013.6 |
| 20260901175016 | 12 | 326 | 11.3 | 22.5 | 0.00 | 0.00 | 0.00 | 77 | 1013.6 |
| 20260901174526 | 12 | 346 | 12.9 | 22.5 | 0.00 | 0.00 | 0.00 | 76 | 1013.5 |
| 20260901174018 | 12 | 358 | 11.3 | 19.3 | 0.00 | 0.00 | 0.00 | 76 | 1013.5 |
| 20260901173521 | 12 | 343 | 9.7 | 17.7 | 0.00 | 0.00 | 0.00 | 76 | 1013.7 |
| 20260901173047 | 12 | 318 | 8.0 | 16.1 | 0.00 | 0.00 | 0.00 | 76 | 1013.8 |
| 20260901172508 | 12 | 333 | 8.0 | 14.5 | 0.00 | 0.00 | 0.00 | 76 | 1013.7 |
| 20260901172003 | 12 | 333 | 9.7 | 14.5 | 0.00 | 0.00 | 0.00 | 75 | 1013.6 |
| 20260901171517 | 12 | 324 | 8.0 | 14.5 | 0.00 | 0.00 | 0.00 | 75 | 1013.7 |
| 20260901171003 | 12 | 358 | 9.7 | 17.7 | 0.00 | 0.00 | 0.00 | 75 | 1013.6 |
| 20260901170503 | 12 | 345 | 11.3 | 17.7 | 0.00 | 0.00 | 0.00 | 75 | 1013.6 |
| 20260901170005 | 12 | 12 | 9.7 | 19.3 | 0.00 | 0.00 | 0.00 | 75 | 1013.7 |
| 20260901165504 | 12 | 29 | 11.3 | 19.3 | 0.00 | 0.00 | 0.00 | 76 | 1013.6 |
| 20260901165002 | 12 | 16 | 9.7 | 16.1 | 0.00 | 0.00 | 0.00 | 76 | 1013.7 |
| 20260901164505 | 12 | 342 | 9.7 | 16.1 | 0.00 | 0.00 | 0.00 | 75 | 1013.9 |
| 20260901164003 | 12 | 318 | 6.4 | 16.1 | 0.00 | 0.00 | 0.00 | 75 | 1013.9 |
| 20260901163506 | 12 | 320 | 9.7 | 16.1 | 0.00 | 0.00 | 0.00 | 76 | 1013.9 |
| 20260901163010 | 12 | 342 | 11.3 | 16.1 | 0.00 | 0.00 | 0.00 | 75 | 1014.0 |
| 20260901162504 | 12 | 314 | 8.0 | 14.5 | 0.00 | 0.00 | 0.00 | 76 | 1013.9 |